Preview of NWS' New Version of Forecast
This preview is not operational and should not be used for support decisions.

Terminal Aerodrome Forecast (TAF)

Issued by National Weather Service (NWS)

                            
000
FTUS42 KKEY 160307 AAB
TAFMTH
TAF AMD
KMTH 160307Z 1603/1624 36009G15KT P6SM FEW030
     FM161400 01009KT P6SM SKC=